| time (UTC) | temp C | wind direction | speed KPH | gust KPH | rain 1hr cm | rain 24hr cm | rain mn cm | humidity % | barometer mb |
| 20260507070016 | 4 | 0.0 | 0.0 | 0.00 | 1.37 | 0.00 | 87 | 1014.2 | |
| 20260507065016 | 5 | 0.0 | 0.0 | 0.00 | 1.40 | 0.00 | 88 | 1014.1 | |
| 20260507064016 | 5 | 0.0 | 0.0 | 0.00 | 1.42 | 0.00 | 88 | 1014.2 | |
| 20260507063116 | 5 | 0.0 | 0.0 | 0.00 | 1.50 | 0.00 | 88 | 1014.0 | |
| 20260507062015 | 5 | 0.0 | 0.0 | 0.00 | 1.55 | 0.00 | 88 | 1014.0 | |
| 20260507061037 | 5 | 0.0 | 0.0 | 0.00 | 1.63 | 0.00 | 88 | 1013.9 | |
| 20260507060016 | 5 | 0.0 | 0.0 | 0.00 | 1.70 | 0.00 | 89 | 1014.2 | |
| 20260507055017 | 5 | 0.0 | 0.0 | 0.00 | 1.75 | 0.00 | 89 | 1014.3 | |
| 20260507054016 | 5 | 0.0 | 0.0 | 0.00 | 1.80 | 0.00 | 89 | 1014.4 | |
| 20260507053015 | 5 | 0.0 | 0.0 | 0.00 | 1.83 | 0.00 | 89 | 1014.4 | |
| 20260507052016 | 5 | 0.0 | 0.0 | 0.00 | 1.88 | 0.00 | 90 | 1014.5 | |
| 20260507051017 | 5 | 0.0 | 0.0 | 0.00 | 1.93 | 0.00 | 90 | 1014.6 | |
| 20260507050017 | 5 | 0.0 | 0.0 | 0.00 | 1.98 | 0.00 | 90 | 1014.6 | |
| 20260507045016 | 5 | 0.0 | 0.0 | 0.00 | 2.03 | 0.00 | 90 | 1014.5 | |
| 20260507044016 | 5 | 0.0 | 0.0 | 0.00 | 2.08 | 0.00 | 90 | 1014.5 | |
| 20260507043038 | 6 | 0.0 | 0.0 | 0.00 | 2.11 | 0.00 | 91 | 1014.6 | |
| 20260507042015 | 6 | 0.0 | 0.0 | 0.00 | 2.13 | 0.00 | 91 | 1014.4 | |
| 20260507041036 | 6 | 0.0 | 0.0 | 0.00 | 2.16 | 0.00 | 91 | 1014.3 | |
| 20260507040016 | 6 | 0.0 | 0.0 | 0.00 | 2.16 | 0.00 | 92 | 1014.3 | |
| 20260507035017 | 6 | 0.0 | 0.0 | 0.00 | 2.18 | 2.18 | 92 | 1014.2 | |
| 20260507034016 | 6 | 0.0 | 0.0 | 0.00 | 2.21 | 2.18 | 92 | 1014.2 | |
| 20260507033016 | 6 | 0.0 | 0.0 | 0.00 | 2.24 | 2.18 | 92 | 1014.2 | |
| 20260507032035 | 6 | 0.0 | 0.0 | 0.00 | 2.26 | 2.18 | 92 | 1014.0 | |
| 20260507031017 | 6 | 0.0 | 0.0 | 0.00 | 2.26 | 2.18 | 92 | 1014.0 | |
| 20260507030016 | 6 | 0.0 | 0.0 | 0.00 | 2.26 | 2.18 | 92 | 1013.9 | |
| 20260507025036 | 6 | 0.0 | 0.0 | 0.00 | 2.26 | 2.18 | 92 | 1013.9 | |
| 20260507024036 | 6 | 0.0 | 0.0 | 0.00 | 2.26 | 2.18 | 92 | 1013.9 | |
| 20260507023015 | 6 | 0.0 | 0.0 | 0.00 | 2.26 | 2.18 | 92 | 1013.8 | |
| 20260507022015 | 6 | 0.0 | 0.0 | 0.00 | 2.29 | 2.18 | 91 | 1013.9 | |
| 20260507021015 | 6 | 0.0 | 0.0 | 0.00 | 2.29 | 2.18 | 91 | 1013.9 | |
| 20260507020036 | 6 | 0.0 | 0.0 | 0.00 | 2.31 | 2.18 | 91 | 1014.0 | |
| 20260507015016 | 6 | 0.0 | 0.0 | 0.00 | 2.31 | 2.18 | 91 | 1013.9 | |
| 20260507014015 | 6 | 0.0 | 0.0 | 0.00 | 2.36 | 2.18 | 90 | 1013.7 | |
| 20260507013016 | 6 | 0.0 | 0.0 | 0.00 | 2.39 | 2.18 | 90 | 1013.7 | |
| 20260507012015 | 6 | 0.0 | 0.0 | 0.00 | 2.41 | 2.18 | 90 | 1013.9 | |
| 20260507011016 | 6 | 0.0 | 0.0 | 0.05 | 2.41 | 2.18 | 90 | 1013.8 | |
| 20260507010016 | 6 | 0.0 | 0.0 | 0.08 | 2.41 | 2.18 | 89 | 1013.7 | |
| 20260507005017 | 6 | 0.0 | 0.0 | 0.10 | 2.41 | 2.18 | 89 | 1013.5 | |
| 20260507004016 | 6 | 0.0 | 0.0 | 0.18 | 2.44 | 2.18 | 88 | 1013.2 | |
| 20260507003016 | 6 | 0.0 | 0.0 | 0.23 | 2.46 | 2.18 | 88 | 1012.8 | |
| 20260507002015 | 6 | 0.0 | 0.0 | 0.28 | 2.49 | 2.18 | 87 | 1012.7 | |
| 20260507001016 | 7 | 0.0 | 0.0 | 0.25 | 2.44 | 2.13 | 87 | 1012.7 | |
| 20260507000016 | 7 | 0.0 | 0.0 | 0.28 | 2.44 | 2.11 | 86 | 1012.7 | |
| 20260506235015 | 7 | 0.0 | 0.0 | 0.30 | 2.41 | 2.08 | 86 | 1012.5 | |
| 20260506234016 | 8 | 0.0 | 0.0 | 0.23 | 2.36 | 2.01 | 86 | 1012.2 | |
| 20260506233035 | 8 | 0.0 | 0.0 | 0.18 | 2.31 | 1.96 | 85 | 1011.9 | |
| 20260506232017 | 8 | 0.0 | 0.0 | 0.13 | 2.31 | 1.91 | 84 | 1011.8 | |
| 20260506231016 | 8 | 0.0 | 0.0 | 0.10 | 2.31 | 1.88 | 83 | 1011.6 | |
| 20260506230057 | 8 | 0.0 | 0.0 | 0.05 | 2.31 | 1.83 | 83 | 1011.6 | |
| 20260506225036 | 8 | 0.0 | 0.0 | 0.00 | 2.31 | 1.78 | 82 | 1011.4 | |
| 20260506224016 | 8 | 0.0 | 0.0 | 0.00 | 2.31 | 1.78 | 82 | 1011.3 | |
| 20260506223017 | 8 | 0.0 | 0.0 | 0.00 | 2.34 | 1.78 | 83 | 1011.3 | |
| 20260506222016 | 8 | 0.0 | 0.0 | 0.00 | 2.36 | 1.78 | 83 | 1011.2 | |
| 20260506221036 | 8 | 0.0 | 0.0 | 0.00 | 2.36 | 1.78 | 83 | 1011.2 | |
| 20260506220017 | 8 | 0.0 | 0.0 | 0.00 | 2.36 | 1.78 | 83 | 1011.1 | |
| 20260506215016 | 8 | 0.0 | 0.0 | 0.00 | 2.36 | 1.78 | 83 | 1010.9 | |
| 20260506214016 | 8 | 0.0 | 0.0 | 0.00 | 2.36 | 1.78 | 84 | 1011.1 | |
| 20260506213036 | 8 | 0.0 | 0.0 | 0.00 | 2.36 | 1.78 | 84 | 1011.0 | |
| 20260506212015 | 8 | 0.0 | 0.0 | 0.00 | 2.36 | 1.78 | 85 | 1011.0 | |
| 20260506211016 | 8 | 0.0 | 0.0 | 0.00 | 2.36 | 1.78 | 85 | 1011.1 | |
| 20260506210017 | 8 | 0.0 | 0.0 | 0.00 | 2.36 | 1.78 | 87 | 1011.1 | |
| 20260506205036 | 8 | 0.0 | 0.0 | 0.00 | 2.36 | 1.78 | 88 | 1011.2 | |
| 20260506204016 | 8 | 0.0 | 0.0 | 0.00 | 2.36 | 1.78 | 88 | 1011.0 | |
| 20260506203016 | 8 | 0.0 | 0.0 | 0.00 | 2.36 | 1.78 | 89 | 1011.1 | |
| 20260506202036 | 8 | 0.0 | 0.0 | 0.00 | 2.36 | 1.78 | 89 | 1010.9 | |
| 20260506201016 | 8 | 0.0 | 0.0 | 0.00 | 2.36 | 1.78 | 90 | 1010.9 | |
| 20260506200016 | 8 | 0.0 | 0.0 | 0.00 | 2.36 | 1.78 | 90 | 1011.2 | |
| 20260506195017 | 8 | 0.0 | 0.0 | 0.00 | 2.36 | 1.78 | 91 | 1011.2 | |
| 20260506194016 | 8 | 0.0 | 0.0 | 0.00 | 2.36 | 1.78 | 92 | 1011.1 | |
| 20260506193021 | 8 | 0.0 | 0.0 | 0.00 | 2.36 | 1.78 | 93 | 1011.2 | |
| 20260506192017 | 8 | 0.0 | 0.0 | 0.00 | 2.36 | 1.78 | 93 | 1011.0 | |
| 20260506191015 | 7 | 0.0 | 0.0 | 0.00 | 2.36 | 1.78 | 94 | 1011.1 | |
| 20260506190018 | 7 | 0.0 | 0.0 | 0.00 | 2.36 | 1.78 | 94 | 1011.3 | |
| 20260506185017 | 7 | 0.0 | 0.0 | 0.00 | 2.36 | 1.78 | 94 | 1011.3 | |
| 20260506184015 | 7 | 0.0 | 0.0 | 0.00 | 2.36 | 1.78 | 95 | 1011.3 | |
| 20260506183017 | 7 | 0.0 | 0.0 | 0.00 | 2.36 | 1.78 | 95 | 1011.3 | |
| 20260506182017 | 7 | 0.0 | 0.0 | 0.00 | 2.36 | 1.78 | 95 | 1011.3 | |
| 20260506181016 | 6 | 0.0 | 0.0 | 0.00 | 2.36 | 1.78 | 95 | 1011.5 | |
| 20260506180016 | 7 | 0.0 | 0.0 | 0.00 | 2.36 | 1.78 | 95 | 1011.8 | |
| 20260506175518 | 7 | 0.0 | 0.0 | 0.00 | 2.36 | 1.78 | 95 | 1011.7 | |
| 20260506174516 | 7 | 0.0 | 0.0 | 0.00 | 2.36 | 1.78 | 96 | 1011.4 | |
| 20260506173517 | 7 | 0.0 | 0.0 | 0.00 | 2.36 | 1.78 | 95 | 1011.1 | |
| 20260506172517 | 7 | 0.0 | 0.0 | 0.00 | 2.36 | 1.78 | 96 | 1011.1 | |
| 20260506171517 | 7 | 0.0 | 0.0 | 0.00 | 2.36 | 1.78 | 96 | 1010.7 | |
| 20260506170516 | 7 | 0.0 | 0.0 | 0.00 | 2.36 | 1.78 | 95 | 1010.7 | |
| 20260506165517 | 7 | 0.0 | 0.0 | 0.00 | 2.36 | 1.78 | 96 | 1010.8 | |
| 20260506164516 | 7 | 0.0 | 0.0 | 0.00 | 2.36 | 1.78 | 96 | 1010.6 | |
| 20260506163517 | 7 | 0.0 | 0.0 | 0.00 | 2.36 | 1.78 | 96 | 1010.9 | |
| 20260506162516 | 7 | 0.0 | 0.0 | 0.00 | 2.36 | 1.78 | 96 | 1010.6 | |
| 20260506161516 | 7 | 0.0 | 0.0 | 0.00 | 2.39 | 1.78 | 96 | 1010.8 | |
| 20260506160517 | 7 | 0.0 | 0.0 | 0.00 | 2.39 | 1.78 | 96 | 1010.6 | |
| 20260506155517 | 7 | 0.0 | 0.0 | 0.00 | 2.39 | 1.78 | 96 | 1010.8 | |
| 20260506154516 | 7 | 0.0 | 0.0 | 0.00 | 2.39 | 1.78 | 96 | 1010.9 | |
| 20260506153515 | 7 | 0.0 | 0.0 | 0.00 | 2.39 | 1.78 | 96 | 1010.7 | |
| 20260506152517 | 6 | 0.0 | 0.0 | 0.03 | 2.39 | 1.78 | 96 | 1010.5 | |
| 20260506151537 | 6 | 0.0 | 0.0 | 0.03 | 2.39 | 1.78 | 96 | 1010.6 | |
| 20260506150517 | 6 | 0.0 | 0.0 | 0.03 | 2.39 | 1.78 | 96 | 1010.6 | |
| 20260506145515 | 6 | 0.0 | 0.0 | 0.03 | 2.39 | 1.78 | 96 | 1010.6 | |
| 20260506144516 | 6 | 0.0 | 0.0 | 0.03 | 2.39 | 1.78 | 96 | 1010.5 | |
| 20260506143615 | 6 | 0.0 | 0.0 | 0.05 | 2.39 | 1.78 | 96 | 1010.3 | |
| 20260506142516 | 6 | 0.0 | 0.0 | 0.03 | 2.36 | 1.75 | 96 | 1010.3 | |
| 20260506141537 | 6 | 0.0 | 0.0 | 0.05 | 2.36 | 1.75 | 96 | 1010.1 | |
| 20260506140516 | 6 | 0.0 | 0.0 | 0.05 | 2.36 | 1.75 | 95 | 1010.0 | |
| 20260506135517 | 6 | 0.0 | 0.0 | 0.05 | 2.36 | 1.75 | 95 | 1010.2 | |
| 20260506134515 | 6 | 0.0 | 0.0 | 0.08 | 2.36 | 1.75 | 95 | 1010.3 | |
| 20260506133517 | 6 | 0.0 | 0.0 | 0.05 | 2.34 | 1.73 | 95 | 1010.2 | |
| 20260506132517 | 6 | 0.0 | 0.0 | 0.05 | 2.34 | 1.73 | 95 | 1010.1 | |
| 20260506131556 | 6 | 0.0 | 0.0 | 0.03 | 2.31 | 1.70 | 95 | 1010.0 | |
| 20260506130516 | 6 | 0.0 | 0.0 | 0.05 | 2.31 | 1.70 | 95 | 1010.0 | |
| 20260506125536 | 6 | 0.0 | 0.0 | 0.08 | 2.31 | 1.70 | 95 | 1009.9 | |
| 20260506124516 | 6 | 0.0 | 0.0 | 0.08 | 2.29 | 1.68 | 95 | 1009.9 | |
| 20260506123535 | 6 | 0.0 | 0.0 | 0.10 | 2.29 | 1.68 | 95 | 1010.1 | |
| 20260506122516 | 6 | 0.0 | 0.0 | 0.13 | 2.29 | 1.68 | 95 | 1010.0 | |
| 20260506121515 | 6 | 0.0 | 0.0 | 0.13 | 2.29 | 1.68 | 95 | 1010.0 | |
| 20260506120515 | 6 | 0.0 | 0.0 | 0.10 | 2.26 | 1.65 | 95 | 1010.1 | |
| 20260506115516 | 6 | 0.0 | 0.0 | 0.10 | 2.24 | 1.63 | 95 | 1010.1 | |
| 20260506114516 | 6 | 0.0 | 0.0 | 0.10 | 2.21 | 1.60 | 95 | 1010.0 | |
| 20260506113515 | 6 | 0.0 | 0.0 | 0.10 | 2.18 | 1.57 | 95 | 1010.0 | |
| 20260506112515 | 6 | 0.0 | 0.0 | 0.10 | 2.16 | 1.55 | 95 | 1009.8 | |
| 20260506111517 | 6 | 0.0 | 0.0 | 0.13 | 2.16 | 1.55 | 95 | 1009.5 | |
| 20260506110516 | 6 | 0.0 | 0.0 | 0.15 | 2.16 | 1.55 | 95 | 1009.7 | |
| 20260506105516 | 6 | 0.0 | 0.0 | 0.15 | 2.13 | 1.52 | 95 | 1009.4 | |
| 20260506104536 | 6 | 0.0 | 0.0 | 0.18 | 2.11 | 1.50 | 95 | 1009.7 | |
| 20260506103536 | 6 | 0.0 | 0.0 | 0.20 | 2.08 | 1.47 | 95 | 1009.9 | |
| 20260506102515 | 6 | 0.0 | 0.0 | 0.20 | 2.06 | 1.45 | 95 | 1009.9 | |
| 20260506101516 | 6 | 0.0 | 0.0 | 0.18 | 2.03 | 1.42 | 95 | 1009.9 | |
| 20260506100516 | 6 | 0.0 | 0.0 | 0.18 | 2.01 | 1.40 | 95 | 1009.9 | |
| 20260506095517 | 6 | 0.0 | 0.0 | 0.18 | 1.98 | 1.37 | 95 | 1009.9 | |
| 20260506094516 | 7 | 0.0 | 0.0 | 0.13 | 1.93 | 1.32 | 95 | 1010.1 | |
| 20260506093516 | 7 | 0.0 | 0.0 | 0.08 | 1.88 | 1.27 | 94 | 1009.9 | |
| 20260506092516 | 7 | 0.0 | 0.0 | 0.08 | 1.85 | 1.24 | 94 | 1009.7 | |
| 20260506091517 | 7 | 0.0 | 0.0 | 0.10 | 1.85 | 1.24 | 94 | 1009.5 | |
| 20260506090517 | 7 | 0.0 | 0.0 | 0.13 | 1.83 | 1.22 | 94 | 1009.2 | |
| 20260506085515 | 7 | 0.0 | 0.0 | 0.13 | 1.80 | 1.19 | 94 | 1009.5 | |
| 20260506084517 | 7 | 0.0 | 0.0 | 0.18 | 1.80 | 1.19 | 94 | 1009.6 | |
| 20260506083516 | 7 | 0.0 | 0.0 | 0.25 | 1.80 | 1.19 | 94 | 1010.1 | |
| 20260506082516 | 7 | 0.0 | 0.0 | 0.28 | 1.78 | 1.17 | 94 | 1009.9 | |
| 20260506081517 | 7 | 0.0 | 0.0 | 0.28 | 1.75 | 1.14 | 94 | 1009.6 | |
| 20260506080515 | 7 | 0.0 | 0.0 | 0.25 | 1.70 | 1.09 | 94 | 1009.7 | |
| 20260506073517 | 7 | 0.0 | 0.0 | 0.23 | 1.55 | 0.94 | 94 | 1009.8 | |
| 20260506072517 | 7 | 0.0 | 0.0 | 0.23 | 1.50 | 0.89 | 94 | 1009.7 | |
| 20260506071515 | 7 | 0.0 | 0.0 | 0.28 | 1.47 | 0.86 | 94 | 1009.5 |